Regional Weather Roundup
Issued by NWS Little Rock, AR

Home | Current Version | Previous Version | Graphics & Text | Print | Product List | Glossary On
Versions: 1 2 3 4 5 6 7 8 9 10 11 12 13 14 15 16 17 18 19 20 21 22 23 24 25 26 27 28 29 30 31 32 33 34 35 36 37 38 39 40 41 42 43 44 45 46 47 48 49 50
000
ASUS44 KLZK 011105
RWRLZK

WEATHER ROUNDUP FOR ARKANSAS
NATIONAL WEATHER SERVICE LITTLE ROCK AR
500 AM CST SUN FEB 01 2015

NOTE: "FAIR" INDICATES FEW OR NO CLOUDS BELOW 12,000 FEET WITH NO
SIGNIFICANT WEATHER AND/OR OBSTRUCTIONS TO VISIBILITY.

ARZ001-003-010-029-011200-
NORTHWEST ARKANSAS

CITY           SKY/WX    TMP DP  RH WIND       PRES   REMARKS
FAYETTEVILLE   CLOUDY    43  43 100 S7        29.77F FOG
FORT SMITH     LGT RAIN  41  39  93 NE8       29.81F FOG
HARRISON       CLOUDY    44  42  93 S9        29.76R
BENTONVILLE    CLOUDY    43  37  81 SW7       29.77F
ROGERS         LGT RAIN  42  41  96 SW8       29.77F FOG
SILOAM SPGS    CLOUDY    41  36  81 S10       29.78F
HIGHFILL       CLOUDY    41  40  96 SW7       29.76F FOG
$$

ARZ004-005-016-011200-
NORTH CENTRAL ARKANSAS

CITY           SKY/WX    TMP DP  RH WIND       PRES   REMARKS
BATESVILLE     CLOUDY    43  37  81 S6        29.82F
FLIPPIN        CLOUDY    43  37  81 S6        29.77F
MTN HOME       RAIN      41  40  96 S10       29.77F FOG
$$

ARZ040-041-011200-
WEST CENTRAL ARKANSAS

CITY           SKY/WX    TMP DP  RH WIND       PRES   REMARKS
MENA           CLOUDY    52  48  87 W6        29.83R
MOUNT IDA      LGT RAIN  50  47  89 VRB7G20   29.78F
$$

ARZ009-017-025-026-028-011200-
NORTHEAST ARKANSAS

CITY           SKY/WX    TMP DP  RH WIND       PRES   REMARKS
CORNING        LGT RAIN  43  39  87 S7        29.85F
JONESBORO      LGT RAIN  43  39  86 S10       29.87F
NEWPORT        LGT RAIN  44  41  89 S14       29.86F
WALNUT RIDGE   CLOUDY    43  36  75 S10       29.85F
BLYTHEVILLE    CLOUDY    50  29  44 S18       29.89F
$$

ARZ022-023-033-042-044-011200-
CENTRAL ARKANSAS

CITY           SKY/WX    TMP DP  RH WIND       PRES   REMARKS
LITTLE ROCK    CLOUDY    51  46  83 S14       29.85F
N LITTLE ROCK    N/A     49  48  97 S10G24    29.85F
JACKSONVILLE   CLOUDY    50  46  87 S8        29.83F
SEARCY         LGT RAIN  44  42  93 S7        29.85
HOT SPRINGS    RAIN      48  46  93 S3        29.85F FOG
RUSSELLVILLE   HVY RAIN  42  40  92 NW3       29.82S FOG
CLINTON        LGT RAIN  39  39 100 CALM      29.85F
$$

ARZ036-011200-
EAST ARKANSAS

CITY           SKY/WX    TMP DP  RH WIND       PRES   REMARKS
WEST MEMPHIS   LGT RAIN  47  40  76 S13       29.91F
$$

ARZ050-053-066-070-073-011200-
SOUTHWEST ARKANSAS

CITY           SKY/WX    TMP DP  RH WIND       PRES   REMARKS
ARKADELPHIA    CLOUDY    46  46 100 CALM      29.86F
CAMDEN         CLOUDY    54  50  87 MISG      29.88F
TEXARKANA      LGT RAIN  56  52  86 S14G24    29.85F
EL DORADO      LGT RAIN  55  52  89 S10G18    29.89F
DE QUEEN       LGT RAIN  49  48  97 CALM      29.83R FOG
$$

ARZ056-057-069-011200-
SOUTHEAST ARKANSAS

CITY           SKY/WX    TMP DP  RH WIND       PRES   REMARKS
PINE BLUFF     LGT RAIN  51  48  89 S17       29.88F
STUTTGART      CLOUDY    48  43  81 S17       29.88F
MONTICELLO     LGT RAIN  51  48  89 S12G18    29.92F

$$





USA.gov is the U.S. government's official web portal to all federal, state and local government web resources and services.